Koosah.INFO

KSEA Weather Observatons

This table shows observations taken by aircraft in the Seattle, WA, US area since 2019-02-21T18:39:46-0800. By default, it is sorted by time observed in ascending order. Click on a column heading to sort by that column instead. Click again on the same column heading to sort in descending order.

Show observations taken in the last:

Return to main page.

Time Observed Time Received Altitude (ft) Latitude Longitude Temperature (˚C) Wind Direction Wind speed (kn) Frequency (MHz) Source
2019-02-21T18:42:00-0800 2019-02-21T18:43:22-0800 538 47.4573 -122.3078 5.0 210 4 130.025 .N323AS
2019-02-21T18:42:00-0800 2019-02-21T18:43:22-0800 778 47.4621 -122.3078 4.7 199 5 130.025 .N323AS
2019-02-21T18:42:00-0800 2019-02-21T18:43:22-0800 968 47.4669 -122.3077 4.2 193 5 130.025 .N323AS
2019-02-21T18:42:00-0800 2019-02-21T18:43:33-0800 5023 47.1855 -122.3243 -6.2 196 14 130.025 .N526AS
2019-02-21T18:43:00-0800 2019-02-21T18:43:33-0800 4021 47.2413 -122.3192 -3.7 204 11 130.025 .N526AS
2019-02-21T18:41:00-0800 2019-02-21T18:43:33-0800 5559 47.1246 -122.3488 -7.5 207 16 130.025 .N526AS
2019-02-21T18:43:00-0800 2019-02-21T18:44:03-0800 1059 47.4695 -122.3077 4.0 189 6 130.025 .N323AS
2019-02-21T18:43:00-0800 2019-02-21T18:44:03-0800 1265 47.4746 -122.3077 3.5 178 5 130.025 .N323AS
2019-02-21T18:43:00-0800 2019-02-21T18:44:03-0800 1465 47.4798 -122.3077 3.0 (missing) (missing) 130.025 .N323AS
2019-02-21T18:44:00-0800 2019-02-21T18:45:23-0800 1907 47.4887 -122.3077 1.0 157 6 130.025 .N546AS
2019-02-21T18:44:00-0800 2019-02-21T18:45:23-0800 2073 47.4942 -122.3078 0.7 161 7 130.025 .N546AS
2019-02-21T18:44:00-0800 2019-02-21T18:45:23-0800 1772 47.4832 -122.3077 1.5 156 7 130.025 .N546AS
2019-02-21T18:44:00-0800 2019-02-21T18:45:55-0800 5118 47.5936 -122.3046 -6.0 162 11 130.025 .N323AS
2019-02-21T18:45:00-0800 2019-02-21T18:45:55-0800 5926 47.6104 -122.2786 -7.7 189 14 130.025 .N323AS
2019-02-21T18:45:00-0800 2019-02-21T18:45:55-0800 6900 47.6145 -122.2423 -9.7 251 6 130.025 .N323AS
2019-02-21T18:45:00-0800 2019-02-21T18:47:29-0800 7057 47.6149 -122.2368 -10.0 257 7 130.025 .N323AS
2019-02-21T18:45:00-0800 2019-02-21T18:47:29-0800 7978 47.6157 -122.1995 -11.0 270 8 130.025 .N323AS
2019-02-21T18:46:00-0800 2019-02-21T18:47:29-0800 8858 47.6073 -122.164 -12.0 (missing) (missing) 130.025 .N323AS
2019-02-21T18:46:00-0800 2019-02-21T18:47:36-0800 10252 47.5591 -122.1386 -15.2 339 11 130.025 .N323AS
2019-02-21T18:47:00-0800 2019-02-21T18:47:36-0800 10492 47.5299 -122.1346 -15.2 350 12 130.025 .N323AS
2019-02-21T18:46:00-0800 2019-02-21T18:47:36-0800 9675 47.586 -122.1422 -13.7 303 17 130.025 .N323AS
2019-02-21T18:47:00-0800 2019-02-21T18:48:48-0800 8440 47.6222 -122.2241 -12.2 313 11 130.025 .N546AS
2019-02-21T18:47:00-0800 2019-02-21T18:48:48-0800 9347 47.6219 -122.1854 -13.0 (missing) (missing) 130.025 .N546AS
2019-02-21T18:46:00-0800 2019-02-21T18:48:48-0800 7460 47.6222 -122.262 -10.5 229 8 130.025 .N546AS
2019-02-21T18:48:00-0800 2019-02-21T18:50:29-0800 11480 47.5742 -122.0915 -16.0 333 18 130.025 .N546AS
2019-02-21T18:48:00-0800 2019-02-21T18:50:29-0800 12396 47.5431 -122.0879 -16.2 339 17 130.025 .N546AS
2019-02-21T18:49:00-0800 2019-02-21T18:50:29-0800 13230 47.511 -122.0854 -16.0 (missing) (missing) 130.025 .N546AS
2019-02-21T18:49:00-0800 2019-02-21T18:50:35-0800 14117 47.4781 -122.0826 -17.7 344 27 130.025 .N546AS
2019-02-21T18:49:00-0800 2019-02-21T18:50:35-0800 15086 47.4446 -122.08 -19.5 346 25 130.025 .N546AS
2019-02-21T18:50:00-0800 2019-02-21T18:50:35-0800 15998 47.4106 -122.0766 -21.0 348 30 130.025 .N546AS
2019-02-21T19:18:00-0800 2019-02-21T19:20:25-0800 2635 47.5172 -122.3073 -1.0 193 9 130.025 .N644AS
2019-02-21T19:19:00-0800 2019-02-21T19:20:25-0800 4113 47.5627 -122.3181 -4.0 (missing) (missing) 130.025 .N644AS
2019-02-21T19:18:00-0800 2019-02-21T19:20:25-0800 3186 47.5397 -122.309 -2.0 194 10 130.025 .N644AS
2019-02-21T19:21:00-0800 2019-02-21T19:22:14-0800 10218 47.6221 -122.5073 -13.7 354 12 130.025 .N644AS
2019-02-21T19:21:00-0800 2019-02-21T19:22:14-0800 10735 47.6245 -122.5468 -14.7 337 16 130.025 .N644AS
2019-02-21T19:21:00-0800 2019-02-21T19:22:14-0800 11041 47.6272 -122.5902 -14.7 329 20 130.025 .N644AS
2019-02-21T19:22:00-0800 2019-02-21T19:23:57-0800 13511 47.6367 -122.7445 -17.0 343 23 130.025 .N644AS
2019-02-21T19:23:00-0800 2019-02-21T19:23:57-0800 14416 47.6391 -122.795 -17.7 339 23 130.025 .N644AS
2019-02-21T19:23:00-0800 2019-02-21T19:23:57-0800 15467 47.6411 -122.8463 -19.7 343 25 130.025 .N644AS
2019-02-21T19:57:00-0800 2019-02-21T19:58:45-0800 2008 47.5086 -122.3083 0.7 211 9 130.025 .N319AS
2019-02-21T19:57:00-0800 2019-02-21T19:58:45-0800 2395 47.5215 -122.3085 0.0 (missing) (missing) 130.025 .N319AS
2019-02-21T19:57:00-0800 2019-02-21T19:58:45-0800 2140 47.515 -122.3083 0.5 213 9 130.025 .N319AS
2019-02-21T19:58:00-0800 2019-02-21T19:58:50-0800 2639 47.528 -122.3087 -0.5 219 9 130.025 .N319AS
2019-02-21T19:58:00-0800 2019-02-21T19:58:50-0800 3008 47.5416 -122.3094 -1.5 226 10 130.025 .N319AS
2019-02-21T19:58:00-0800 2019-02-21T19:58:50-0800 2837 47.5347 -122.309 -1.2 222 7 130.025 .N319AS
2019-02-21T19:58:00-0800 2019-02-21T19:59:59-0800 2742 47.5314 -122.3089 -1.0 223 8 130.025 .N319AS
2019-02-21T19:58:00-0800 2019-02-21T19:59:59-0800 3445 47.5544 -122.3131 -2.5 213 13 130.025 .N319AS
2019-02-21T19:58:00-0800 2019-02-21T19:59:59-0800 4371 47.5754 -122.3307 -4.0 (missing) (missing) 130.025 .N319AS
2019-02-21T19:59:00-0800 2019-02-21T20:01:04-0800 2247 47.5122 -122.3082 0.2 212 11 130.025 .N315AS
2019-02-21T20:00:00-0800 2019-02-21T20:01:04-0800 2360 47.5184 -122.3082 0.0 214 10 130.025 .N315AS
2019-02-21T20:00:00-0800 2019-02-21T20:01:04-0800 2485 47.5246 -122.3082 -0.2 214 10 130.025 .N315AS
2019-02-21T19:59:00-0800 2019-02-21T20:01:48-0800 2301 47.5153 -122.3082 0.0 212 10 130.025 .N315AS
2019-02-21T20:00:00-0800 2019-02-21T20:01:48-0800 2815 47.5366 -122.309 -1.0 230 12 130.025 .N315AS
2019-02-21T20:00:00-0800 2019-02-21T20:01:48-0800 3473 47.5572 -122.3221 -2.0 (missing) (missing) 130.025 .N315AS
2019-02-21T20:01:00-0800 2019-02-21T20:03:31-0800 6106 47.615 -122.3911 -8.7 201 19 130.025 .N315AS
2019-02-21T20:02:00-0800 2019-02-21T20:03:31-0800 6928 47.6135 -122.4261 -10.7 195 9 130.025 .N315AS
2019-02-21T20:02:00-0800 2019-02-21T20:03:31-0800 7715 47.5991 -122.4546 -11.0 (missing) (missing) 130.025 .N315AS
2019-02-21T20:03:00-0800 2019-02-21T20:03:37-0800 10255 47.5235 -122.4539 -14.5 338 10 130.025 .N315AS
2019-02-21T20:02:00-0800 2019-02-21T20:03:37-0800 8480 47.5756 -122.4675 -12.2 32 7 130.025 .N315AS
2019-02-21T20:03:00-0800 2019-02-21T20:03:37-0800 9340 47.5495 -122.462 -13.2 321 9 130.025 .N315AS
2019-02-21T20:04:00-0800 2019-02-21T20:06:39-0800 18021 47.2983 -122.9579 -24.7 329 23 130.025 .N319AS
2019-02-21T20:05:00-0800 2019-02-21T20:06:39-0800 18627 47.2714 -122.9984 -25.0 336 32 130.025 .N319AS
2019-02-21T20:05:00-0800 2019-02-21T20:06:39-0800 19210 47.2434 -123.0388 -25.0 (missing) (missing) 130.025 .N319AS
2019-02-21T20:07:00-0800 2019-02-21T20:08:29-0800 22038 47.0474 -123.1335 -29.0 (missing) (missing) 130.025 .N319AS
2019-02-21T20:06:00-0800 2019-02-21T20:08:29-0800 21552 47.0911 -123.1375 -29.5 339 42 130.025 .N319AS
2019-02-21T20:06:00-0800 2019-02-21T20:08:29-0800 21028 47.134 -123.1349 -29.0 341 37 130.025 .N319AS
2019-02-21T20:06:00-0800 2019-02-21T20:08:31-0800 18102 47.1677 -122.3628 -25.2 341 23 130.025 .N315AS
2019-02-21T20:07:00-0800 2019-02-21T20:08:31-0800 18525 47.1328 -122.3538 -26.0 (missing) (missing) 130.025 .N315AS
2019-02-21T20:06:00-0800 2019-02-21T20:08:31-0800 17680 47.2024 -122.3715 -24.2 341 23 130.025 .N315AS
2019-02-21T20:07:00-0800 2019-02-21T20:08:36-0800 22531 47.0031 -123.1301 -31.2 347 45 130.025 .N319AS
2019-02-21T20:07:00-0800 2019-02-21T20:08:36-0800 23014 46.9583 -123.1267 -32.2 344 46 130.025 .N319AS
2019-02-21T20:08:00-0800 2019-02-21T20:08:36-0800 23491 46.9129 -123.1234 -33.5 343 48 130.025 .N319AS
2019-02-21T20:28:00-0800 2019-02-21T20:31:09-0800 3982 47.2051 -122.3106 -3.5 267 7 130.025 .N307AS
2019-02-21T20:29:00-0800 2019-02-21T20:31:09-0800 3507 47.26 -122.3092 -3.0 239 7 130.025 .N307AS
2019-02-21T20:30:00-0800 2019-02-21T20:31:09-0800 2525 47.3126 -122.3094 -0.5 217 6 130.025 .N307AS
2019-02-21T20:29:00-0800 2019-02-21T20:36:06-0800 31759 48.5621 -123.3309 -54.5 319 83 130.025 .N615AS
2019-02-21T20:30:00-0800 2019-02-21T20:36:06-0800 30021 48.4519 -123.2286 -50.5 320 64 130.025 .N615AS
2019-02-21T20:31:00-0800 2019-02-21T20:36:06-0800 27747 48.3494 -123.1339 -44.5 312 52 130.025 .N615AS